Regional Weather Roundup
Issued by NWS Wakefield, VA

Home | Current Version | Previous Version | Text Only | Print | Product List | Glossary On
Versions: 1 2 3 4 5 6 7 8 9 10 11 12 13 14 15 16 17 18 19 20 21 22 23 24 25 26
000
ASUS41 KAKQ 301315
RWRAKQ

REGIONAL WEATHER ROUNDUP
NATIONAL WEATHER SERVICE WAKEFIELD VA
900 AM EDT FRI SEP 30 2016

Note: "fair" indicates few or no clouds below 12,000 feet with no
significant weather and/or obstructions to visibility. * = Denotes
station may not report precipitation (e.g., rain,snow,etc.),
thunder or fog.

VAZ042-051-052>054-056-301400-
NORTHERN VIRGINIA

CITY           SKY/WX    TMP DP  RH WIND       PRES   REMARKS
WASH NATIONAL  CLOUDY    62  61  96 NE15      30.16S
DULLES         CLOUDY    60  57  89 NE10      30.17S
FORT BELVOIR   CLOUDY    62  59  90 VRB3      30.14S
QUANTICO       LGT RAIN  65  62  90 NE15G22   30.14S
FREDERICKSBRG* CLOUDY    64  64 100 NE7       30.12R
STAFFORD*      CLOUDY    62  62 100 NE8       30.17R
WARRENTON      CLOUDY    62  57  85 NE7       30.15S HAZE
CULPEPER*      DRIZZLE   61  61  99 N7        30.16S
MANASSAS*      NOT AVBL
LEESBURG*      DRIZZLE   59  59 100 NE8G16    30.19S
WINCHESTER     DRIZZLE   57  55  94 CALM      30.19R
FRONT ROYAL*   CLOUDY    57  57 100 N6        30.17S
LURAY*         CLOUDY   N/A N/A N/A N14       30.16S
$$

VAZ048-049-060>072-079>083-301400-
CENTRAL AND SOUTH CENTRAL VIRGINIA

CITY           SKY/WX    TMP DP  RH WIND       PRES   REMARKS
RICHMOND       CLOUDY    67  66  97 NE8       30.09R FOG
CHESTERFIELD*  CLOUDY    68  54  60 NE6       30.09S
PETERSBURG*    CLOUDY   N/A N/A N/A NE7       30.08S FOG
HANOVER        CLOUDY    66  64  93 VRB5      30.11S
TAPPAHANNOCK*  CLOUDY    68  68 100 N3        30.11R
QUINTON*       CLOUDY    67  67 100 N6        30.08F FOG
CHARLOTTSVILLE CLOUDY    63  60  90 NE16      30.12S FOG
GORDONSVILLE*  CLOUDY    61  61 100 NE12      30.12S FOG
ORANGE*        DRIZZLE   63  63 100 N6        30.15R
LOUISA*        DRIZZLE   66  64  94 NE9       30.10S
BUMPASS*       CLOUDY    63  63 100 NE3       30.11S
FARMVILLE*     DRIZZLE   68  67  99 NE9       30.06S
CREWE*         CLOUDY    67  67 100 NE5       30.06S VSB 1/2
FORT PICKETT*  CLOUDY   N/A N/A N/A NE8       30.06S VSB 1
CHASE CITY*    CLOUDY    69  67  94 E7        30.05R VSB 1
CLARKSVILLE*   CLOUDY    70  70 100 E7        30.03S
SOUTH HILL*    CLOUDY    69  69 100 CALM      30.11R
LAWRENCEVILLE* CLOUDY    70  69  97 E3        30.05S
EMPORIA*       CLOUDY    72  70  94 NE5       30.07S
$$

VAZ088>098-301400-
SOUTHEAST VIRGINIA

CITY           SKY/WX    TMP DP  RH WIND       PRES   REMARKS
NORFOLK        MOSUNNY   76  73  91 NE5       30.06S
VIRGINIA BEACH PTSUNNY   74  72  93 CALM      30.06R
NORFOLK NAVAL  MOSUNNY   76  73  91 N6        30.08R
WEST POINT*    CLOUDY    69  68  98 N6        30.10R
SALUDA*        CLOUDY    70  70 100 N5        30.08R
NEWPORT NEWS   CLOUDY    73  71  93 N3        30.08R
LANGLEY AFB    PTSUNNY   73  73 100 N6        30.07R
FORT EUSTIS    CLOUDY    73  70  88 NE5       30.05R FOG
WILLIAMSBURG*  CLOUDY    73  72  94 CALM      30.08S
HR EXEC AP*    CLOUDY    73  72  94 CALM      30.09R
FRANKLIN*      CLOUDY    71  70  98 NE3       30.07S
US460-WAKEFLD  CLOUDY    72  71  97 CALM      30.08R FOG
$$

VAZ020-022-025-037-045-301400-
WEST CENTRAL AND SOUTHWEST VIRGINIA

CITY           SKY/WX    TMP DP  RH WIND       PRES   REMARKS
STAUNTON*      DRIZZLE   60  58  96 NE7       30.15R
WAYNESBORO*    CLOUDY    59  58  97 CALM      30.13R
HOT SPRINGS VA NOT AVBL
LYNCHBURG      LGT RAIN  62  62 100 NE14      30.07S FOG
DANVILLE       CLOUDY    71  70  96 VRB5      30.01S
SOUTH BOSTON*  CLOUDY    70  68  95 E6        30.03S
MARTINSVILLE   CLOUDY    66  64  91 CALM      30.03F
ROANOKE        TSTM      66  64  93 NE9       30.04F
BLACKSBURG     LGT RAIN  63  63 100 E6        30.08S
DUBLIN*        CLOUDY    62  62 100 NE6       30.04F FOG
MARION*        CLOUDY    59  58  96 CALM      30.07R
HILLSVILLE*    MOSUNNY   62  61  99 CALM      30.04S
RICHLANDS*     FOG       55  55 100 CALM      30.03S VSB<1/4
WISE*          FOG       52  52 100 CALM      30.05S VSB<1/4
ABINGDON*      CLOUDY    57  57  99 CALM      30.03R FOG
$$

MDZ021>025-VAZ099-100-301400-
SOUTHERN MARYLAND AND THE DELMARVA PENINSULA

CITY           SKY/WX    TMP DP  RH WIND       PRES   REMARKS
PATUXENT RIVER CLOUDY    69  66  90 N12       30.10R
BAY BRIDGE APT DRIZZLE   63  61  94 MISG      30.16S FOG
LEONARDTOWN    CLOUDY    64  63  94 N5        30.12S
DOVER          CLOUDY    64 N/A N/A NE18G26   30.14R
GEORGETOWN     CLOUDY    68  32  26 NE18G28   30.12R
EASTON         CLOUDY    66  63  88 NE13      30.17R FOG
CAMBRIDGE      CLOUDY    66  64  94 NE8G17    30.11R
SALISBURY      CLOUDY    71  70  96 NE12      30.09R
OCEAN CITY     CLOUDY   N/A N/A N/A E15G23    30.09R
WALLOPS ISLAND CLOUDY    73  73 100 NE7       30.08R FOG
ACCOMACK*      CLOUDY   N/A N/A N/A CALM      30.07R HAZE
$$

NCZ012>017-030>032-301400-
NORTH CENTRAL AND EASTERN NORTH CAROLINA

CITY           SKY/WX    TMP DP  RH WIND       PRES   REMARKS
ROANOKE RAPIDS CLOUDY    70  70 100 NE7       30.04S FOG
RALEIGH        CLOUDY    75  71  87 E10       30.01S
ELIZABETH CITY MOSUNNY   75  73  93 NE7       30.07R
AHOSKIE*       FOG       69  69  99 NE6       30.05F VSB 1/2
EDENTON*       FOG       74  74 100 NE5       30.06S VSB 1/4
CURRITUCK*     PTSUNNY   74  74 100 CALM      30.07S
KILL DEVIL HLS MOSUNNY   78  78 100 CALM      30.06R
MANTEO         MOSUNNY   76  75  98 CALM      30.07R
CAPE HATTERAS  LGT RAIN  80  76  87 SE3       30.05R
TARBORO*       FOG       73  73  99 CALM      30.04S VSB 1
GOLDSBORO      CLOUDY    73  73 100 E7        30.00R
WASHINGTON     CLOUDY    72  72  99 E3        30.03F FOG
GREENVILLE     RAIN      72  72 100 E5        30.05S VSB 1/2
NEW BERN       MOSUNNY   76  74  93 E7        30.04R
WILMINGTON     PTSUNNY   75  73  93 NE5       30.02R
$$

VAZ048-301400-
ELSEWHERE

CITY           SKY/WX    TMP DP  RH WIND       PRES   REMARKS
HARRISBURG PA  LGT RAIN  55  53  93 E12       30.25R
BALTIMORE      LGT RAIN  58  57  97 NE12      30.18S VSB 1
ANNAPOLIS      LGT RAIN  64  62  93 NE9G17    30.16S FOG
ANDREWS AFB    CLOUDY    62  60  95 NE14      30.14S FOG
PHILADELPHIA   LGT RAIN  58  56  93 NE15      30.23R
HENDERSON NC   CLOUDY    68  67  98 E7        30.03F FOG
GREENSBORO     CLOUDY    71  70  96 SE8       29.99R
ROCKY MOUNT    FOG       72  72 100 NE5       30.03S VSB 1/2
$$

VAZ100-301400-
MARINE

STATION/POSITION TIME  TEMP    WIND        PRES    WAVE   SWELL
                       AIR SEA DIR/SP/G            HT/PER HT/PER
                 (UTC) (F)     (DEG/KT/KT) (MB)    (FT/S) (FT/S)
BRANDYWINE LGT   1248   67      70/ 29/ 34   N/A
CAPE MAY NJ      1248   66 68   50/ 14/ 24 1019.8F
LEWES DE         1248   69 70   70/ 32/ 39 1019.0F
OCEAN-CITY-INLET 1248   71 71   80/ 14/ 23 1019.2R
WACHAPREAGUE VA  1248   74 74   40/  1/  2 1018.1R
THOMAS POINT MD  1300   63 72   40/ 19/ 22 1022.0R
GOOSES REEF MD   1250   68      70/ 19/ 23 1019.9R
COVE POINT MD    1248   67      70/ 20/ 24 1019.7R
SOLOMONS ISLAND  1242   68 74   20/ 12/ 17   N/A
BISHOPS HEAD MD  1248   71 70   40/  9/ 16 1018.9R
PINEY POINT MD   1248           50/ 11/ 14   N/A
POTOMAC MD       1250   71      30/ 10/ 12 1017.8R
CAMBRIDGE MD     1248   68 72   50/ 17/ 22 1018.9R
LEWISETTA VA     1248   70 71   40/  7/ 12 1018.4R
RAPPAHANNOCK LGT 1248          360/  4/  5 1018.7R
STINGRAY PT      1250   72     340/  6/  8 1018.4R
YORK RVR RNG VA  1248   72      10/ 11/ 12 1017.6S
YORKTOWN VA      1248   71 76   10/  6/  8 1017.8S
JAMESTOWN VA     1250   71      10/  4/  6   N/A
DOMINION TERM VA 1248   73      30/  3/  4 1018.1R
KIPTOPEKE VA     1248      75  330/  2/  3   N/A
CHES BAY BRIDGE  1248   75 76  360/  4/  5 1017.9R
CAPE HENRY VA    1248   77     360/  1/  2   N/A
WILLOUBY STN VA  1248   73     360/  3/  3   N/A
CAPE HENRY BUOY  1242      76                N/A     5/10   2/11
1ST LANDING BUOY 1250   75     340/  2/  4 1017.9R
64NM E OF VA BCH 1250   74 74   90/  4/  6 1018.0R   8/10   7/10
DUCK PIER NC     1248   76 76   70/  6/  7 1017.7R
44056 DUCK FRF   1241      76                N/A     5/10   2/11
OREGON INLET NC  1248   78 78   40/  4/  5 1018.0R
HATTERAS NC      1248   77 79  110/  8/ 15 1017.3R
DIAMOND SHLS NC  1250   80 77  160/ 10/ 12 1017.3R   4/ 9   3/ 9
CAPE LOOKOUT NC  1200   79     160/ 10/ 12 1016.4R
$$




USA.gov is the U.S. government's official web portal to all federal, state and local government web resources and services.